User: anonymous   Login
Location: Plainartige
(45.6866°N, 1.7993°E)
Time: 22:37:18
(UTC+00:00)
Language:

XW-2B - Orbit

View from above orbital plane
View from above orbital plane
View from above satellite
View from above satellite

Ground track
Ground track

The orbit data is extracted from the following two-line orbital elements,

1 40911U 15049N   22179.58019845  .00004830  00000-0  22882-3 0  9995
2 40911  97.4897 183.4908 0011867 324.3478 150.9001 15.19738512374549
Epoch (UTC): 28 June 2022 13:55:29
Eccentricity: 0.0011867
inclination: 97.4897°
perigee height: 498 km
apogee height: 515 km
right ascension of ascending node: 183.4908°
argument of perigee: 324.3478°
revolutions per day: 15.19738512
mean anomaly at epoch: 150.9001°
orbit number at epoch: 37454

The dashed part of the orbit path shows where the satellite is in the earth's shadow,  

DLR